GW4419 Weather Reports


time (UTC)temp
C
wind
direction
speed
KPH
gust
KPH
rain 1hr
cm
rain 24hr
cm
rain mn
cm
humidity
%
barometer
mb
20260906165430 35 291 1.6 3.2 0.00 0.00 0.00 48 1018.4
20260906164926 35 257 0.0 0.0 0.00 0.00 0.00 46 1018.3
20260906164424 35 216 1.6 1.6 0.00 0.00 0.00 46 1018.3
20260906163921 35 263 0.0 1.6 0.00 0.00 0.00 50 1018.6
20260906163416 35 164 1.6 1.6 0.00 0.00 0.00 51 1018.4
20260906162915 35 270 1.6 1.6 0.00 0.00 0.00 52 1018.5
20260906162413 35 289 1.6 1.6 0.00 0.00 0.00 50 1018.7
20260906161908 35 232 0.0 0.0 0.00 0.00 0.00 52 1018.6
20260906161408 35 262 0.0 0.0 0.00 0.00 0.00 52 1018.5
20260906160907 35 307 1.6 3.2 0.00 0.00 0.00 53 1018.3
20260906160400 34 274 0.0 0.0 0.00 0.00 0.00 54 1018.4
20260906155859 34 214 0.0 0.0 0.00 0.00 0.00 56 1018.6
20260906155352 33 266 1.6 1.6 0.00 0.00 0.00 56 1018.4
20260906154849 33 58 0.0 1.6 0.00 0.00 0.00 56 1018.5
20260906154343 34 218 0.0 1.6 0.00 0.00 0.00 59 1018.2
20260906153842 33 0 1.6 1.6 0.00 0.00 0.00 58 1018.4
20260906153341 32 190 3.2 3.2 0.00 0.00 0.00 59 1018.5
20260906152837 32 314 1.6 3.2 0.00 0.00 0.00 60 1018.4
20260906152331 32 260 0.0 0.0 0.00 0.00 0.00 58 1018.1
20260906151825 32 271 0.0 0.0 0.00 0.00 0.00 61 1018.4
20260906151321 32 241 0.0 1.6 0.00 0.00 0.00 63 1018.2
20260906150816 32 193 0.0 0.0 0.00 0.00 0.00 61 1018.1
20260906150312 32 243 0.0 1.6 0.00 0.00 0.00 62 1018.1
20260906145811 32 98 1.6 1.6 0.00 0.00 0.00 63 1018.1
20260906145309 32 222 0.0 0.0 0.00 0.00 0.00 65 1018.2
20260906144804 31 28 0.0 0.0 0.00 0.00 0.00 66 1018.1
20260906144259 31 125 0.0 1.6 0.00 0.00 0.00 66 1018.3
20260906143759 31 87 0.0 0.0 0.00 0.00 0.00 70 1018.2
20260906143256 31 334 0.0 1.6 0.00 0.00 0.00 70 1018.3
20260906142755 30 282 0.0 0.0 0.00 0.00 0.00 71 1018.3
20260906142252 31 309 0.0 0.0 0.00 0.00 0.00 72 1018.2
20260906141750 31 329 0.0 0.0 0.00 0.00 0.00 71 1018.3
20260906141245 30 327 0.0 0.0 0.00 0.00 0.00 72 1018.2
20260906140744 30 294 0.0 1.6 0.00 0.00 0.00 74 1018.3
20260906140239 30 260 0.0 0.0 0.00 0.00 0.00 73 1018.1
20260906135735 30 93 0.0 0.0 0.00 0.00 0.00 75 1018.2
20260906135232 28 110 0.0 0.0 0.00 0.00 0.00 76 1018.0
20260906134727 28 110 0.0 0.0 0.00 0.00 0.00 81 1018.0
20260906134222 27 110 0.0 0.0 0.00 0.00 0.00 83 1017.8
20260906133718 26 110 0.0 0.0 0.00 0.00 0.00 84 1017.8
20260906133213 25 109 0.0 0.0 0.00 0.00 0.00 87 1018.0
20260906132708 24 110 0.0 0.0 0.00 0.00 0.00 89 1018.0
20260906132204 23 110 0.0 0.0 0.00 0.00 0.00 91 1017.7
20260906131659 23 110 0.0 0.0 0.00 0.00 0.00 92 1017.7
20260906131154 23 110 0.0 0.0 0.00 0.00 0.00 93 1017.7
20260906130649 22 110 0.0 0.0 0.00 0.00 0.00 94 1017.8
20260906130145 22 110 0.0 0.0 0.00 0.00 0.00 94 1017.7
20260906125642 22 110 0.0 0.0 0.00 0.00 0.00 95 1017.6
20260906125141 22 111 0.0 0.0 0.00 0.00 0.00 95 1017.8
20260906124637 22 110 0.0 0.0 0.00 0.00 0.00 96 1017.6
20260906124132 21 110 0.0 0.0 0.00 0.00 0.00 96 1017.7
20260906123631 22 110 0.0 0.0 0.00 0.00 0.00 96 1017.5
20260906123126 21 110 0.0 0.0 0.00 0.00 0.00 96 1017.5
20260906122626 21 111 0.0 0.0 0.00 0.00 0.00 96 1017.4
20260906122121 21 111 0.0 0.0 0.00 0.00 0.00 96 1017.2
20260906121617 21 110 0.0 0.0 0.00 0.00 0.00 96 1017.5
20260906121114 21 110 0.0 0.0 0.00 0.00 0.00 96 1017.4
20260906120609 21 110 0.0 0.0 0.00 0.00 0.00 96 1017.4
20260906120107 21 111 0.0 0.0 0.00 0.00 0.00 97 1017.3
20260906115606 21 110 0.0 0.0 0.00 0.00 0.00 97 1017.3
20260906115102 21 111 0.0 0.0 0.00 0.00 0.00 97 1017.2
20260906114601 21 111 0.0 0.0 0.00 0.00 0.00 97 1017.0
20260906114057 21 111 0.0 0.0 0.00 0.00 0.00 97 1017.0
20260906113556 21 111 0.0 0.0 0.00 0.00 0.00 97 1017.2
20260906113051 21 111 0.0 0.0 0.00 0.00 0.00 97 1017.1
20260906112546 21 111 0.0 0.0 0.00 0.00 0.00 97 1017.1
20260906112042 21 111 0.0 0.0 0.00 0.00 0.00 97 1017.2
20260906111541 21 111 0.0 0.0 0.00 0.00 0.00 97 1017.1
20260906111037 21 111 0.0 0.0 0.00 0.00 0.00 97 1016.7
20260906110537 21 111 0.0 0.0 0.00 0.00 0.00 96 1017.0
20260906110036 21 111 0.0 0.0 0.00 0.00 0.00 96 1017.0
20260906105531 21 111 0.0 0.0 0.00 0.00 0.00 96 1016.9
20260906105027 21 111 0.0 0.0 0.00 0.00 0.00 96 1017.0
20260906104525 21 111 0.0 0.0 0.00 0.00 0.00 96 1016.9
20260906104021 21 111 0.0 0.0 0.00 0.00 0.00 96 1016.9
20260906103519 21 111 0.0 0.0 0.00 0.00 0.00 96 1017.1
20260906103014 21 111 0.0 0.0 0.00 0.00 0.00 96 1016.7
20260906102514 21 111 0.0 0.0 0.00 0.00 0.00 96 1016.8
20260906102014 21 111 0.0 0.0 0.00 0.00 0.00 96 1016.8
20260906101509 21 111 0.0 0.0 0.00 0.00 0.00 96 1016.6
20260906101004 21 111 0.0 0.0 0.00 0.00 0.00 96 1016.6
20260906100500 21 111 0.0 0.0 0.00 0.00 0.00 96 1016.7
20260906100000 21 111 0.0 0.0 0.00 0.00 0.00 96 1016.7
20260906095455 21 111 0.0 0.0 0.00 0.00 0.00 96 1016.6
20260906094950 21 111 0.0 0.0 0.00 0.00 0.00 96 1016.5
20260906094443 21 111 0.0 0.0 0.00 0.00 0.00 96 1016.5
20260906093939 21 111 0.0 0.0 0.00 0.00 0.00 96 1016.5
20260906093436 21 111 0.0 0.0 0.00 0.00 0.00 96 1016.4
20260906092936 21 111 0.0 0.0 0.00 0.00 0.00 96 1016.3
20260906092435 21 111 0.0 0.0 0.00 0.00 0.00 96 1016.5
20260906091931 21 111 0.0 0.0 0.00 0.00 0.00 96 1016.5
20260906091426 21 111 0.0 0.0 0.00 0.00 0.00 96 1016.3
20260906090923 21 111 0.0 0.0 0.00 0.00 0.00 96 1016.4
20260906090418 21 110 0.0 0.0 0.00 0.00 0.00 97 1016.2
20260906085912 22 110 0.0 0.0 0.00 0.00 0.00 98 1016.2
20260906085411 21 110 0.0 0.0 0.00 0.00 0.00 98 1016.2
20260906084905 21 111 0.0 0.0 0.00 0.00 0.00 98 1016.1
20260906084400 21 111 0.0 0.0 0.00 0.00 0.00 98 1016.1
20260906083854 21 111 0.0 0.0 0.00 0.00 0.00 98 1016.2
20260906083350 21 111 0.0 0.0 0.00 0.00 0.00 99 1016.0
20260906082849 21 111 0.0 0.0 0.00 0.00 0.00 99 1016.0
20260906082345 21 111 0.0 0.0 0.00 0.00 0.00 99 1016.1
20260906081841 21 111 0.0 0.0 0.00 0.00 0.00 99 1015.9
20260906081336 21 111 0.0 0.0 0.00 0.00 0.00 99 1015.9
20260906080832 21 111 0.0 0.0 0.00 0.00 0.00 99 1016.2
20260906080328 21 111 0.0 0.0 0.00 0.00 0.00 99 1016.2
20260906075827 21 111 0.0 0.0 0.00 0.00 0.00 99 1016.2
20260906075328 21 111 0.0 0.0 0.00 0.00 0.00 99 1016.3
20260906074823 21 111 0.0 0.0 0.00 0.00 0.00 99 1016.2
20260906074323 21 111 0.0 0.0 0.00 0.00 0.00 99 1016.2
20260906073821 21 111 0.0 0.0 0.00 0.00 0.00 99 1016.3
20260906073316 21 111 0.0 0.0 0.00 0.00 0.00 99 1016.3
20260906072813 21 111 0.0 0.0 0.00 0.00 0.00 99 1016.2
20260906072308 21 111 0.0 0.0 0.00 0.00 0.00 99 1016.3
20260906071804 21 111 0.0 0.0 0.00 0.00 0.00 99 1016.4
20260906071304 21 111 0.0 0.0 0.00 0.00 0.00 99 1016.4
20260906070801 21 111 0.0 0.0 0.00 0.00 0.00 99 1016.3
20260906070256 21 111 0.0 0.0 0.00 0.00 0.00 99 1016.6
20260906065755 21 111 0.0 0.0 0.00 0.00 0.00 99 1016.5
20260906065251 21 111 0.0 0.0 0.00 0.00 0.00 99 1016.7
20260906064747 21 111 0.0 0.0 0.00 0.00 0.00 99 1016.5
20260906064242 21 111 0.0 0.0 0.00 0.00 0.00 99 1016.6
20260906063737 21 111 0.0 0.0 0.00 0.00 0.00 99 1016.6
20260906063233 21 111 0.0 0.0 0.00 0.00 0.00 99 1016.6
20260906062728 21 111 0.0 0.0 0.00 0.00 0.00 99 1016.7
20260906062227 22 111 0.0 0.0 0.00 0.00 0.00 99 1016.7
20260906061723 22 111 0.0 0.0 0.00 0.00 0.00 99 1016.6
20260906061219 22 111 0.0 0.0 0.00 0.00 0.00 99 1016.7
20260906060714 22 111 0.0 0.0 0.00 0.00 0.00 99 1016.8
20260906060212 22 111 0.0 0.0 0.00 0.00 0.00 99 1016.7
20260906055707 22 111 0.0 0.0 0.00 0.00 0.00 99 1016.7
20260906055202 21 111 0.0 0.0 0.00 0.00 0.00 99 1016.9
20260906054652 22 111 0.0 0.0 0.00 0.00 0.00 99 1016.8
20260906054151 22 111 0.0 0.0 0.00 0.00 0.00 99 1016.8
20260906053648 22 111 0.0 0.0 0.00 0.00 0.00 99 1016.8
20260906053143 22 111 0.0 0.0 0.00 0.00 0.00 99 1016.8
20260906052639 21 111 0.0 0.0 0.00 0.00 0.00 99 1016.6
20260906052135 21 111 0.0 0.0 0.00 0.00 0.00 99 1016.6
20260906051631 22 111 0.0 0.0 0.00 0.00 0.00 99 1016.8
20260906051126 22 111 0.0 0.0 0.00 0.00 0.00 99 1016.8
20260906050622 22 111 0.0 0.0 0.00 0.00 0.00 99 1016.7
20260906050122 22 111 0.0 0.0 0.00 0.00 0.00 99 1016.7
20260906045620 22 111 0.0 0.0 0.00 0.30 0.30 99 1016.8
20260906045115 22 111 0.0 0.0 0.00 0.30 0.30 99 1016.8
20260906044611 22 111 0.0 0.0 0.00 0.30 0.30 99 1016.6
20260906044106 22 111 0.0 0.0 0.00 0.30 0.30 99 1016.6
20260906043603 22 111 0.0 0.0 0.00 0.30 0.30 99 1016.7
20260906043058 21 111 0.0 0.0 0.00 0.30 0.30 99 1016.9
20260906042557 21 111 0.0 0.0 0.00 0.30 0.30 99 1016.8
20260906042051 21 111 0.0 0.0 0.00 0.30 0.30 99 1016.9
20260906041548 22 111 0.0 0.0 0.00 0.30 0.30 99 1016.8
20260906041043 22 111 0.0 0.0 0.00 0.30 0.30 99 1016.9
20260906040538 21 111 0.0 0.0 0.00 0.30 0.30 99 1016.8
20260906040033 21 111 0.0 0.0 0.00 0.30 0.30 99 1016.8
20260906035528 22 111 0.0 0.0 0.00 0.30 0.30 99 1017.0
20260906035024 22 111 0.0 0.0 0.00 0.30 0.30 99 1016.7
20260906034518 22 111 0.0 0.0 0.00 0.30 0.30 99 1016.7
20260906034013 22 111 0.0 0.0 0.00 0.30 0.30 99 1016.6
20260906033508 22 111 0.0 0.0 0.00 0.30 0.30 99 1016.6
20260906033004 22 111 0.0 0.0 0.00 0.30 0.30 99 1016.6
20260906032500 22 111 0.0 0.0 0.00 0.30 0.30 99 1016.5
20260906031954 22 111 0.0 0.0 0.00 0.30 0.30 99 1016.6
20260906031449 22 111 0.0 0.0 0.00 0.30 0.30 99 1016.5
20260906030940 22 111 0.0 0.0 0.00 0.30 0.30 99 1016.5
20260906030433 22 111 0.0 0.0 0.00 0.30 0.30 99 1016.5
20260906025928 22 111 0.0 0.0 0.00 0.30 0.30 99 1016.4
20260906025428 22 111 0.0 0.0 0.00 0.30 0.30 99 1016.4
20260906024927 22 111 0.0 0.0 0.00 0.30 0.30 99 1016.2
20260906024426 21 111 0.0 0.0 0.00 0.30 0.30 99 1016.0
20260906023921 21 111 0.0 0.0 0.00 0.30 0.30 99 1016.2
20260906023418 21 111 0.0 0.0 0.00 0.30 0.30 99 1016.0
20260906022917 22 111 0.0 0.0 0.00 0.30 0.30 99 1016.0
20260906022413 21 111 0.0 0.0 0.00 0.30 0.30 99 1016.0
20260906021908 22 111 0.0 0.0 0.00 0.30 0.30 99 1015.9
20260906021408 22 111 0.0 0.0 0.00 0.30 0.30 99 1015.8
20260906020902 22 111 0.0 0.0 0.00 0.30 0.30 99 1015.7
20260906020357 22 111 0.0 0.0 0.00 0.30 0.30 99 1015.6
20260906015851 22 111 0.0 0.0 0.00 0.30 0.30 99 1015.4
20260906015350 22 111 0.0 0.0 0.00 0.30 0.30 99 1015.4
20260906014844 22 111 0.0 0.0 0.00 0.30 0.30 99 1015.3
20260906014339 22 111 0.0 0.0 0.00 0.30 0.30 98 1015.3
20260906013835 22 111 0.0 0.0 0.00 0.30 0.30 98 1015.2
20260906013331 22 111 0.0 0.0 0.00 0.30 0.30 98 1015.3
20260906012826 22 111 0.0 0.0 0.00 0.30 0.30 98 1015.2
20260906012321 22 111 0.0 0.0 0.00 0.30 0.30 98 1015.2
20260906011816 22 198 0.0 0.0 0.00 0.30 0.30 98 1015.1
20260906011315 22 213 0.0 0.0 0.00 0.30 0.30 98 1014.9
20260906010812 22 222 0.0 0.0 0.00 0.30 0.30 97 1015.1
20260906010308 22 137 0.0 0.0 0.00 0.30 0.30 97 1015.2
20260906005803 22 137 0.0 0.0 0.00 0.30 0.30 97 1015.2
20260906005301 22 138 0.0 0.0 0.00 0.30 0.30 96 1015.3
20260906004801 22 223 0.0 0.0 0.00 0.30 0.30 96 1015.1
20260906004255 22 117 0.0 0.0 0.00 0.30 0.30 96 1015.2
20260906003750 22 220 0.0 0.0 0.00 0.30 0.30 95 1015.2
20260906003246 22 220 0.0 0.0 0.00 0.30 0.30 95 1015.4
20260906002740 23 221 0.0 0.0 0.43 0.30 0.30 94 1015.3
20260906002235 23 193 0.0 1.6 1.50 0.30 0.30 91 1015.3
20260906001730 24 244 1.6 3.2 1.27 0.23 0.23 85 1016.0
20260906001225 26 294 4.8 4.8 0.43 0.08 0.08 76 1016.2
20260906000721 26 267 0.0 0.0 0.13 0.03 0.03 75 1016.2
20260906000216 27 287 3.2 3.2 0.00 0.00 0.00 71 1016.3
20260905235715 27 349 3.2 4.8 0.00 0.00 0.00 67 1016.0
20260905235210 27 95 4.8 8.0 0.00 0.00 0.00 67 1015.9
20260905234706 27 341 6.4 9.7 0.00 0.00 0.00 68 1016.0
20260905234201 29 73 4.8 8.0 0.00 0.00 0.00 65 1016.2
20260905233656 31 286 6.4 9.7 0.00 0.00 0.00 59 1015.9
20260905233155 32 0 1.6 1.6 0.00 0.00 0.00 54 1015.6
20260905232651 32 154 6.4 9.7 0.00 0.00 0.00 52 1015.3
20260905232146 32 54 3.2 3.2 0.00 0.00 0.00 55 1015.3
20260905231641 32 237 0.0 0.0 0.00 0.00 0.00 55 1014.8
20260905231137 31 237 0.0 0.0 0.00 0.00 0.00 58 1014.8
20260905230633 31 237 0.0 0.0 0.00 0.00 0.00 61 1014.8
20260905230131 31 236 0.0 1.6 0.00 0.00 0.00 61 1014.8
20260905225631 31 289 1.6 1.6 0.00 0.00 0.00 59 1015.0
20260905225126 32 284 1.6 1.6 0.00 0.00 0.00 53 1014.8
20260905224625 32 279 1.6 1.6 0.00 0.00 0.00 52 1015.0
20260905224124 31 249 0.0 0.0 0.00 0.00 0.00 56 1015.0
20260905223621 31 249 0.0 0.0 0.00 0.00 0.00 56 1014.8
20260905223118 31 233 0.0 0.0 0.00 0.00 0.00 56 1014.6
20260905222618 31 232 0.0 1.6 0.00 0.00 0.00 55 1014.5
20260905222113 30 235 0.0 0.0 0.00 0.00 0.00 56 1014.6
20260905221609 30 116 0.0 0.0 0.00 0.00 0.00 55 1014.6
20260905221105 30 94 3.2 3.2 0.00 0.00 0.00 54 1014.9
20260905220555 33 127 4.8 8.0 0.00 0.00 0.00 50 1014.8
20260905220051 35 157 1.6 1.6 0.00 0.00 0.00 45 1014.9
20260905215550 35 171 1.6 3.2 0.00 0.00 0.00 44 1014.7
20260905215046 36 223 3.2 3.2 0.00 0.00 0.00 41 1015.0
20260905214542 36 269 0.0 0.0 0.00 0.00 0.00 40 1014.8
20260905214037 37 267 0.0 1.6 0.00 0.00 0.00 38 1014.8
20260905213532 37 334 1.6 1.6 0.00 0.00 0.00 37 1014.7
20260905213028 37 150 1.6 1.6 0.00 0.00 0.00 38 1014.7
20260905212522 37 262 0.0 0.0 0.00 0.00 0.00 37 1014.9
20260905212021 37 232 0.0 0.0 0.00 0.00 0.00 37 1015.0
20260905211517 37 239 0.0 0.0 0.00 0.00 0.00 38 1014.9
20260905211013 37 326 0.0 0.0 0.00 0.00 0.00 37 1014.8
20260905210508 37 326 0.0 0.0 0.00 0.00 0.00 37 1015.0
20260905210009 37 292 0.0 0.0 0.00 0.00 0.00 39 1015.0
20260905205508 37 157 3.2 3.2 0.00 0.00 0.00 38 1015.1
20260905205007 38 307 0.0 0.0 0.00 0.00 0.00 36 1015.3
20260905204502 38 308 1.6 1.6 0.00 0.00 0.00 35 1015.2
20260905204002 38 288 1.6 1.6 0.00 0.00 0.00 36 1015.3
20260905203457 38 273 1.6 1.6 0.00 0.00 0.00 36 1015.3
20260905202953 38 293 0.0 1.6 0.00 0.00 0.00 36 1015.6
20260905202448 38 258 1.6 1.6 0.00 0.00 0.00 36 1015.6
20260905201943 37 19 0.0 0.0 0.00 0.00 0.00 37 1015.4
20260905201438 37 159 1.6 3.2 0.00 0.00 0.00 38 1015.8
20260905200932 37 192 1.6 1.6 0.00 0.00 0.00 38 1015.9
20260905200429 37 250 0.0 0.0 0.00 0.00 0.00 38 1015.9
20260905195926 38 158 1.6 1.6 0.00 0.00 0.00 37 1015.8
20260905195417 37 73 1.6 1.6 0.00 0.00 0.00 38 1016.1
20260905194912 36 232 0.0 0.0 0.00 0.00 0.00 44 1016.0
20260905194412 34 326 0.0 0.0 0.00 0.00 0.00 43 1016.2
20260905193911 33 326 0.0 0.0 0.00 0.00 0.00 49 1016.3
20260905193406 35 326 0.0 0.0 0.00 0.00 0.00 47 1016.2
20260905192902 35 326 0.0 0.0 0.00 0.00 0.00 44 1016.4
20260905192357 35 326 0.0 0.0 0.00 0.00 0.00 44 1016.5
20260905191857 36 326 0.0 0.0 0.00 0.00 0.00 42 1016.5
20260905191356 36 265 0.0 0.0 0.00 0.00 0.00 42 1016.5
20260905190855 36 18 1.6 1.6 0.00 0.00 0.00 41 1016.8
20260905190348 36 319 0.0 0.0 0.00 0.00 0.00 41 1016.8
20260905185847 37 289 0.0 0.0 0.00 0.00 0.00 39 1016.8
20260905185343 38 278 3.2 4.8 0.00 0.00 0.00 36 1016.9
20260905184841 37 71 0.0 0.0 0.00 0.00 0.00 38 1016.7
20260905184340 36 185 0.0 0.0 0.00 0.00 0.00 40 1017.0
20260905183834 36 291 0.0 1.6 0.00 0.00 0.00 42 1016.9
20260905183330 36 269 1.6 1.6 0.00 0.00 0.00 41 1017.1
20260905182830 37 265 3.2 3.2 0.00 0.00 0.00 40 1017.1
20260905182329 37 289 0.0 0.0 0.00 0.00 0.00 41 1017.2
20260905181825 37 167 1.6 1.6 0.00 0.00 0.00 41 1017.3
20260905181319 38 263 0.0 0.0 0.00 0.00 0.00 40 1017.4
20260905180818 38 52 0.0 0.0 0.00 0.00 0.00 38 1017.6
20260905180313 37 71 0.0 1.6 0.00 0.00 0.00 40 1017.5
20260905175808 37 128 0.0 1.6 0.00 0.00 0.00 41 1017.5
20260905175306 37 319 1.6 1.6 0.00 0.00 0.00 41 1017.7
20260905174758 38 257 0.0 0.0 0.00 0.00 0.00 39 1017.7
20260905174254 38 16 1.6 3.2 0.00 0.00 0.00 39 1017.6
20260905173749 38 200 1.6 1.6 0.00 0.00 0.00 39 1018.0
20260905173245 38 300 0.0 1.6 0.00 0.00 0.00 37 1017.8
20260905172744 38 269 1.6 1.6 0.00 0.00 0.00 39 1018.2
20260905172243 37 227 0.0 1.6 0.00 0.00 0.00 41 1018.1
20260905171740 37 131 3.2 3.2 0.00 0.00 0.00 40 1018.1
20260905171236 37 269 1.6 1.6 0.00 0.00 0.00 42 1018.2
20260905170732 36 257 3.2 3.2 0.00 0.00 0.00 42 1018.3
20260905170228 37 239 0.0 1.6 0.00 0.00 0.00 42 1018.3
20260905165727 36 157 0.0 1.6 0.00 0.00 0.00 41 1018.4